User: anonymous   Login
Location: Newark
(34.0131°N, 4.3314°W)
Time: 20:15:40
(UTC+00:00)
Language:

Transit 2A - Orbit

View from above orbital plane
View from above orbital plane
View from above satellite
View from above satellite

Ground track
Ground track

The orbit data is extracted from the following two-line orbital elements,

1    45U 60007A   19286.16671106 -.00000059  00000-0  12060-4 0  9994
2    45  66.6945 315.1783 0250634 137.6647 224.4101 14.33651652 87116
Epoch (UTC): 13 October 2019 04:00:03
Eccentricity: 0.0250634
inclination: 66.6945°
perigee height: 600 km
apogee height: 959 km
right ascension of ascending node: 315.1783°
argument of perigee: 137.6647°
revolutions per day: 14.33651652
mean anomaly at epoch: 224.4101°
orbit number at epoch: 8711

The dashed part of the orbit path shows where the satellite is in the earth's shadow,  

DLR